[[{"header":{"parameterUnit":"m.s-1","parameterCategory":1,"la1":30.2991,"la2":30.254,"lo1":-89.0895,"lo2":-89.0444,"dy":0.0017,"dx":0.0017,"nx":28,"ny":28,"refTime":"2024-03-30T21:00:00:Z","depth":0,"parameterNumber":2,"parameterNumberName":"U-component_of_WINDS"},"data":[0,0,0,0,0,0,0,0,0,0,0,0,0,0,0,0,0,0,0,0,0,0,0,0,0,0,0,0,0,0,0,0,0,0,0,0,0,0,0,0,0,0,0,0,0,0,0,0,0,0,0,0,0,0,0,0,0,0,-3.0801,-3.0802,0,-3.0828,-3.0828,-3.0828,-3.0798,-3.0796,-3.0795,-3.0794,-3.082,-3.0821,-3.0823,0,0,0,0,0,0,0,0,0,0,0,0,0,-3.0723,-3.0725,-3.0801,-3.0802,-3.0802,-3.0828,-3.0828,-3.0829,-3.0798,-3.0796,-3.0795,-3.0794,-3.0819,-3.0821,-3.0823,0,0,0,0,0,0,0,0,0,0,0,0,0,-3.0754,-3.0726,-3.0801,-3.079,-3.0789,-3.0828,-3.0828,-3.0829,-3.0798,-3.0796,-3.0795,-3.0793,-3.0819,-3.0821,-3.0824,-3.0874,0,0,-3.0832,-3.0833,0,0,0,0,0,0,0,0,-3.0753,-3.0757,-3.0791,-3.0791,-3.079,-3.0808,-3.081,-3.0844,-3.0799,-3.0795,-3.0794,-3.0792,-3.0817,-3.082,-3.0828,-3.0876,-3.0877,-3.0832,-3.0834,-3.0835,-3.0835,0,0,0,0,0,0,0,-3.0751,-3.0756,-3.0812,-3.0792,-3.0791,-3.0783,-3.0786,-3.0816,-3.0815,-3.0795,-3.0793,-3.0796,-3.0816,-3.0826,-3.0829,-3.0877,-3.0832,-3.0834,-3.0836,-3.0837,-3.0967,-3.0969,0,0,0,0,0,0,-3.075,-3.0754,-3.0811,-3.0813,-3.0767,-3.0786,-3.0789,-3.0804,-3.0815,-3.0815,-3.0798,-3.0795,-3.0822,-3.0826,-3.083,-3.0889,-3.0835,-3.0837,-3.0839,-3.0965,-3.0968,-3.097,0,0,0,0,0,0,-3.0748,-3.0755,-3.081,-3.0783,-3.0789,-3.0789,-3.0806,-3.0805,-3.0815,-3.0817,-3.0816,-3.0808,-3.0821,-3.0826,-3.0864,-3.0889,-3.0838,-3.0841,-3.0963,-3.0966,-3.0969,-3.1008,0,0,0,0,0,0,-3.0746,-3.0755,-3.0774,-3.0784,-3.0791,-3.0844,-3.0808,-3.0807,-3.0819,-3.0816,-3.0826,-3.0826,-3.082,-3.086,-3.0866,-3.0892,-3.0843,-3.0961,-3.0964,-3.0968,-3.1005,-3.1012,-3.1019,0,0,0,0,0,-3.0744,-3.0784,-3.0775,-3.0782,-3.0815,-3.0845,-3.0849,-3.0842,-3.0822,-3.0841,-3.0843,-3.0826,-3.0886,-3.0864,-3.0871,-3.0898,-3.0959,-3.0963,-3.0967,-3.1001,-3.1011,-3.1018,0,0,0,0,0,0,-3.0776,-3.0785,-3.0775,-3.082,-3.0832,-3.084,-3.0864,-3.0852,-3.0869,-3.0865,-3.0855,-3.0858,-3.0897,-3.0902,-3.0877,-3.0948,-3.0919,-3.0925,-3.0943,-3.0951,-3.0958,-3.0955,-3.0845,0,0,0,0,0,-3.0789,-3.0813,-3.0819,-3.0858,-3.0865,-3.0864,-3.0877,-3.087,-3.0882,-3.0887,-3.0891,-3.0903,-3.0924,-3.0939,-3.0959,-3.1006,-3.1007,-3.1028,-3.1035,-3.1041,-3.1045,-3.107,-3.1079,-3.0983,-3.0983,-3.0983,0,0,-3.0815,-3.0823,-3.0838,-3.0865,-3.0874,-3.0898,-3.0868,-3.0895,-3.0914,-3.0891,-3.0926,-3.093,-3.0943,-3.0986,-3.1005,-3.099,-3.1072,-3.1046,-3.1051,-3.1052,-3.1075,-3.1084,-3.1092,-3.0986,-3.0986,-3.0985,0,0,-3.0875,-3.0884,-3.0916,-3.0926,-3.094,-3.0939,-3.0947,-3.0957,-3.0959,-3.0995,-3.0978,-3.1,-3.1038,-3.1047,-3.1057,-3.1122,-3.1107,-3.1129,-3.1164,-3.1189,-3.1196,-3.1203,-3.1224,-3.1233,-3.1134,-3.1134,-3.1134,0,-3.0905,-3.0942,-3.0935,-3.0964,-3.0976,-3.0958,-3.0991,-3.1,-3.102,-3.1028,-3.1013,-3.106,-3.1067,-3.1111,-3.1127,-3.1137,-3.1145,-3.1126,-3.1196,-3.1202,-3.1208,-3.1229,-3.1237,-3.1136,-3.1136,-3.1136,-3.1136,0,-3.0977,-3.1003,-3.1029,-3.1048,-3.1064,-3.1095,-3.1092,-3.1109,-3.1102,-3.1102,-3.1139,-3.1148,-3.1169,-3.118,-3.1173,-3.1223,-3.1214,-3.1197,-3.1168,-3.122,-3.1239,-3.1247,-3.114,-3.1139,-3.1138,-3.1138,0,0,-3.1056,-3.1073,-3.1082,-3.1091,-3.1106,-3.1125,-3.1156,-3.1177,-3.1191,-3.1206,-3.123,-3.1263,-3.1249,-3.126,-3.1254,-3.1276,-3.1325,-3.1257,-3.1257,-3.1267,-3.138,-3.1391,-3.14,-3.1317,-3.1319,-3.132,-3.1379,0,-3.1114,-3.1166,-3.1162,-3.1212,-3.1235,-3.1219,-3.1246,-3.1258,-3.126,-3.128,-3.1283,-3.1305,-3.1285,-3.1291,-3.1313,-3.1315,-3.1348,-3.1311,-3.1338,-3.1339,-3.1333,-3.141,-3.1422,-3.1477,-3.1386,-3.1388,-3.1388,0,-3.1188,-3.1206,-3.1258,-3.127,-3.128,-3.1303,-3.1323,-3.1343,-3.1356,-3.1356,-3.137,-3.1361,-3.1391,-3.1364,-3.1405,-3.138,-3.1391,-3.1395,-3.1397,-3.1397,-3.1365,-3.1411,-3.1494,-3.1502,-3.1401,-3.14,-3.1399,0,-3.1238,-3.1276,-3.1311,-3.132,-3.1335,-3.1351,-3.1358,-3.137,-3.1384,-3.1401,-3.1409,-3.143,-3.1441,-3.1457,-3.1454,-3.1434,-3.1496,-3.1468,-3.1495,-3.1495,-3.1507,-3.1505,-3.1591,-3.1518,-3.1518,-3.1518,-3.1518,0,-3.1302,-3.1334,-3.1334,-3.1355,-3.1391,-3.1386,-3.1421,-3.1426,-3.1438,-3.146,-3.1448,-3.1469,-3.1465,-3.1486,-3.1484,-3.1517,-3.1523,-3.1523,-3.1522,-3.1523,-3.1522,-3.1528,-3.1523,-3.152,-3.152,-3.1519,-3.1519,0,-3.1362,-3.1364,-3.1401,-3.1413,-3.1417,-3.1442,-3.1452,-3.1472,-3.1475,-3.1503,-3.1509,-3.1512,-3.1537,-3.1536,-3.1563,-3.1562,-3.1603,-3.1598,-3.1598,-3.1596,-3.1623,-3.162,-3.1713,-3.1724,-3.1646,-3.1647,-3.1648,0,-3.1402,-3.1426,-3.1441,-3.1455,-3.1463,-3.1487,-3.1501,-3.1498,-3.1512,-3.153,-3.1548,-3.1572,-3.159,-3.163,-3.1634,-3.1655,-3.1649,-3.1681,-3.1652,-3.1652,-3.1647,-3.1645,-3.1647,-3.1685,-3.1686,-3.1687,-3.1687,0,-3.1472,-3.1471,-3.1492,-3.1513,-3.153,-3.1547,-3.1562,-3.1574,-3.1573,-3.159,-3.1615,-3.1629,-3.1658,-3.1681,-3.1701,-3.1708,-3.1697,-3.1697,-3.1704,-3.1704,-3.1702,-3.1702,-3.1611,-3.1694,-3.1693,-3.1693,-3.1692,-3.1692,-3.1521,-3.1542,-3.1556,-3.1579,-3.1591,-3.1605,-3.1625,-3.163,-3.1651,-3.1674,-3.1671,-3.1699,-3.1712,-3.1739,-3.1748,-3.1769,-3.1758,-3.1768,-3.1771,-3.1773,-3.1775,-3.1701,-3.1773,-3.1773,-3.1772,-3.1772,-3.1772,0,-3.1589,-3.1597,-3.1619,-3.1641,-3.1659,-3.165,-3.1666,-3.1682,-3.1706,-3.172,-3.1739,-3.1767,-3.179,-3.1797,-3.1819,-3.1834,-3.183,-3.184,-3.1837,-3.1839,-3.1784,-3.1775,-3.1843,-3.1843,-3.1843,-3.1843,-3.1843,-3.1843,-3.1626,-3.166,-3.1662,-3.1702,-3.171,-3.1737,-3.1747,-3.176,-3.1771,-3.1804,-3.1823,-3.1828,-3.1839,-3.1861,-3.1882,-3.1883,-3.1891,-3.1902,-3.1902,-3.185,-3.1843,-3.1836,-3.1827,-3.1905,-3.1905,-3.1954,-3.1954,-3.1955]},{"header":{"parameterUnit":"m.s-1","parameterCategory":1,"la1":30.2991,"la2":30.254,"lo1":-89.0895,"lo2":-89.0444,"dy":0.0017,"dx":0.0017,"nx":28,"ny":28,"refTime":"2024-03-30T21:00:00:Z","depth":0,"parameterNumber":3,"parameterNumberName":"V-component_of_WINDS"},"data":[0,0,0,0,0,0,0,0,0,0,0,0,0,0,0,0,0,0,0,0,0,0,0,0,0,0,0,0,0,0,0,0,0,0,0,0,0,0,0,0,0,0,0,0,0,0,0,0,0,0,0,0,0,0,0,0,0,0,3.2268,3.2268,0,3.2212,3.2211,3.221,3.2239,3.2241,3.2242,3.2244,3.2181,3.2178,3.2175,0,0,0,0,0,0,0,0,0,0,0,0,0,3.2399,3.2396,3.2268,3.2268,3.2267,3.2212,3.2211,3.221,3.2239,3.2241,3.2243,3.2244,3.2182,3.2179,3.2175,0,0,0,0,0,0,0,0,0,0,0,0,0,3.2342,3.2396,3.2268,3.2275,3.2275,3.2212,3.2211,3.221,3.2239,3.2241,3.2243,3.2245,3.2184,3.2179,3.2175,3.2101,0,0,3.2161,3.2159,0,0,0,0,0,0,0,0,3.2345,3.2337,3.2274,3.2274,3.2274,3.2235,3.2234,3.2173,3.2238,3.2252,3.2244,3.2246,3.2197,3.2192,3.2176,3.2098,3.2095,3.216,3.2157,3.2155,3.2154,0,0,0,0,0,0,0,3.2349,3.234,3.2246,3.2274,3.2273,3.228,3.2274,3.2223,3.2212,3.2251,3.2253,3.2246,3.2197,3.218,3.2175,3.2094,3.216,3.2156,3.2153,3.2152,3.1955,3.1953,0,0,0,0,0,0,3.2353,3.2343,3.2248,3.2244,3.2316,3.2275,3.2269,3.2245,3.2213,3.2211,3.2244,3.2248,3.2187,3.218,3.2172,3.2086,3.2155,3.2151,3.2149,3.1958,3.1955,3.1952,0,0,0,0,0,0,3.2356,3.2344,3.225,3.2294,3.2283,3.2271,3.2243,3.2243,3.2226,3.2208,3.2206,3.2229,3.2188,3.2179,3.2119,3.2084,3.2149,3.2145,3.1961,3.1957,3.1953,3.191,0,0,0,0,0,0,3.236,3.2345,3.2318,3.2293,3.228,3.2198,3.2241,3.224,3.2218,3.2222,3.2193,3.219,3.2189,3.2126,3.2115,3.2079,3.2141,3.1964,3.1959,3.1955,3.1915,3.1905,3.1897,0,0,0,0,0,3.2364,3.2306,3.2316,3.2304,3.2245,3.2196,3.2188,3.219,3.2215,3.2187,3.2176,3.2191,3.2089,3.212,3.2107,3.2069,3.1966,3.196,3.1955,3.1918,3.1907,3.1898,0,0,0,0,0,0,3.2325,3.2303,3.2314,3.2247,3.2223,3.2201,3.2166,3.2178,3.2145,3.215,3.2152,3.2145,3.2084,3.207,3.2104,3.1997,3.2031,3.2023,3.2008,3.1997,3.1989,3.1993,3.2137,0,0,0,0,0,3.2309,3.2272,3.2254,3.2196,3.2184,3.2177,3.2156,3.2159,3.2134,3.2124,3.2109,3.2083,3.2046,3.202,3.1985,3.1913,3.1907,3.1881,3.1872,3.1865,3.1858,3.182,3.1809,3.1934,3.1934,3.1934,0,0,3.2274,3.2258,3.2234,3.2188,3.2171,3.2132,3.2168,3.2125,3.2096,3.2117,3.2061,3.2048,3.202,3.1954,3.1925,3.1941,3.1822,3.1858,3.1853,3.1849,3.1813,3.1802,3.1791,3.193,3.1931,3.1931,0,0,3.2192,3.2176,3.2127,3.2109,3.2083,3.2078,3.2067,3.2043,3.2036,3.198,3.1996,3.196,3.1895,3.1875,3.1856,3.1768,3.1781,3.1756,3.1712,3.1675,3.1665,3.1656,3.1626,3.1615,3.1749,3.1749,3.1749,0,3.2153,3.2096,3.21,3.2056,3.2036,3.2055,3.2006,3.1987,3.195,3.1935,3.1955,3.1875,3.1857,3.1788,3.1767,3.175,3.1737,3.176,3.1666,3.1658,3.165,3.1621,3.1609,3.1747,3.1747,3.1747,3.1747,0,3.2049,3.2009,3.1972,3.1938,3.1913,3.1867,3.1864,3.1838,3.1844,3.1838,3.178,3.176,3.1721,3.1705,3.1709,3.1637,3.1648,3.1667,3.1701,3.1635,3.1608,3.1597,3.1743,3.1744,3.1744,3.1745,0,0,3.194,3.191,3.1896,3.1882,3.1854,3.1823,3.1778,3.1742,3.172,3.1694,3.1656,3.1601,3.1619,3.1598,3.16,3.1568,3.1501,3.1591,3.159,3.1576,3.1421,3.1408,3.1395,3.151,3.1508,3.1506,3.1424,0,3.1857,3.1779,3.1782,3.1708,3.1672,3.169,3.1651,3.163,3.1623,3.159,3.1582,3.1544,3.157,3.1558,3.1526,3.1516,3.147,3.1522,3.1474,3.1472,3.1482,3.138,3.1366,3.1289,3.1413,3.1411,3.141,0,3.1749,3.1722,3.1645,3.1625,3.161,3.1574,3.1542,3.1511,3.1488,3.1485,3.1462,3.147,3.1424,3.146,3.1396,3.1431,3.1412,3.1404,3.1401,3.1397,3.1437,3.1374,3.1264,3.1253,3.1393,3.1394,3.1396,0,3.1679,3.1622,3.157,3.1556,3.1531,3.1506,3.1494,3.1473,3.1452,3.1423,3.1409,3.1375,3.1357,3.133,3.1328,3.1355,3.1264,3.13,3.1261,3.1261,3.1241,3.1242,3.1127,3.1227,3.1228,3.1228,3.1228,0,3.1586,3.1539,3.1538,3.1506,3.1454,3.1458,3.1405,3.1396,3.1377,3.1343,3.1356,3.1324,3.1323,3.129,3.1288,3.1237,3.1228,3.1224,3.1224,3.1223,3.1224,3.1211,3.1216,3.1225,3.1225,3.1226,3.1226,0,3.1499,3.1496,3.1441,3.1422,3.1416,3.1379,3.1362,3.1332,3.1326,3.1283,3.1273,3.1265,3.1226,3.1222,3.1177,3.1176,3.1114,3.1119,3.1122,3.1123,3.1085,3.1089,3.0958,3.0941,3.1051,3.105,3.1049,0,3.1441,3.1405,3.1383,3.1362,3.1349,3.1315,3.1294,3.1296,3.1274,3.1245,3.1218,3.1181,3.1152,3.109,3.1079,3.1045,3.105,3.1007,3.1045,3.1046,3.105,3.1053,3.105,3.0999,3.0998,3.0997,3.0996,0,3.1337,3.1338,3.1308,3.1277,3.1252,3.1228,3.1205,3.1187,3.1187,3.116,3.1123,3.11,3.1055,3.1019,3.0986,3.0973,3.0984,3.0984,3.0974,3.0972,3.0976,3.0975,3.1103,3.0987,3.0988,3.0989,3.0989,3.099,3.1263,3.1233,3.1214,3.118,3.1163,3.1142,3.1113,3.1105,3.1074,3.1039,3.1042,3.1,3.0978,3.0935,3.092,3.0886,3.0901,3.0885,3.0881,3.0877,3.0874,3.0981,3.088,3.088,3.0881,3.0881,3.0881,0,3.1162,3.1151,3.112,3.1088,3.1062,3.1077,3.1052,3.1029,3.0992,3.0972,3.0944,3.09,3.0865,3.0853,3.0818,3.0794,3.0799,3.0785,3.0787,3.0785,3.0862,3.0876,3.0783,3.0783,3.0783,3.0783,3.0783,3.0783,3.1106,3.1057,3.1055,3.0998,3.0986,3.0947,3.0932,3.0912,3.0896,3.0848,3.082,3.0812,3.0794,3.0759,3.0728,3.0725,3.0712,3.0697,3.0696,3.0769,3.0779,3.0788,3.0801,3.0694,3.0693,3.0621,3.062,3.062]}]]